Probability
39 32 19 6 0 0 0 0 0 0 0 0 0 0 0 0 0 0 0 3 6 10 10 16 19 26 26 26 26 32 29 42 45 42 35 39 39 48 45 48 52 48 45 52 58 42 42 52 55
32 19 6 0 0 0 0 0 0 0 0 0 0 0 0 0 0 3 3 3 10 10 10 10 26 23 29 29 32 29 29 35 35 32 29 29 29 29 39 42 42 42 48 48 48 52 45 52 48
32 19 3 0 0 0 0 0 0 0 0 0 0 0 0 0 0 0 3 3 10 10 10 16 19 19 23 29 29 29 26 29 29 32 32 26 32 32 35 39 45 39 42 42 48 45 45 48 48
3 0 0 0 0 0 0 0 0 0 0 0 0 0 0 0 0 3 3 3 10 10 10 16 19 19 23 26 23 19 29 26 29 26 32 35 29 29 26 29 39 45 39 39 42 42 32 39 39
0 0 0 0 0 0 0 0 0 0 0 0 0 0 0 0 3 3 3 3 6 10 10 16 19 23 19 13 19 26 23 29 26 23 29 29 32 39 29 26 23 26 29 32 35 35 29 29 29
3 0 0 0 0 0 0 0 0 0 0 0 0 0 0 0 6 3 3 3 3 6 6 10 19 19 16 16 16 16 19 19 26 26 26 29 29 32 29 35 29 29 23 26 26 29 23 26 26
3 0 0 0 0 0 0 0 0 0 0 0 0 0 0 0 0 0 3 3 3 6 6 6 6 10 16 16 13 16 16 16 16 26 29 32 32 32 29 26 26 19 19 29 32 19 23 19 23
0 0 0 0 0 0 0 0 0 0 3 0 0 0 0 0 0 3 6 3 3 6 6 6 6 6 6 6 16 19 19 19 26 26 26 19 16 13 13 16 16 16 16 26 29 16 19 23 19
0 0 0 0 0 0 0 0 0 0 6 6 3 0 0 3 3 6 6 3 3 3 3 3 3 3 3 6 6 10 13 16 16 13 13 10 6 3 10 10 16 13 13 23 23 19 19 10 10
0 0 0 0 0 0 0 0 0 0 3 3 3 3 3 3 0 0 6 3 6 3 6 3 3 3 3 3 3 3 6 6 0 0 0 0 0 0 6 10 10 10 6 16 10 6 6 3 0
0 0 0 0 0 0 0 0 0 0 0 3 3 3 3 3 0 0 3 6 6 6 6 3 3 3 3 3 3 3 3 0 0 0 0 0 0 0 0 0 0 0 0 0 3 3 3 0 0
0 0 0 0 0 0 0 0 0 0 0 0 6 6 6 6 3 6 3 6 6 6 3 3 3 3 3 3 3 3 3 0 0 0 0 0 0 0 0 0 0 0 0 0 0 0 0 0 0
0 0 0 0 0 0 0 0 0 0 0 0 6 3 3 3 6 6 6 10 6 3 3 3 3 3 3 3 3 3 3 0 0 0 0 0 0 0 0 0 0 0 0 0 0 0 0 0 0
0 0 0 0 0 0 0 0 0 0 3 3 3 3 3 3 3 3 3 6 6 6 6 6 3 3 3 3 3 3 3 0 0 0 0 0 0 0 0 0 0 0 0 0 0 0 0 3 0
0 0 0 0 0 0 0 0 0 0 0 3 3 3 3 0 0 0 0 3 6 6 6 3 3 3 3 3 3 3 3 0 0 0 0 0 0 0 0 0 0 0 0 0 0 0 0 3 3
0 0 0 0 0 0 0 0 0 0 0 3 3 3 3 3 0 0 0 3 6 6 3 3 6 3 3 3 3 3 3 0 0 0 0 0 0 0 0 0 0 0 0 0 0 0 0 0 0
0 0 0 0 0 0 0 0 0 0 0 0 3 3 3 3 3 3 3 3 6 3 3 0 0 3 3 3 3 3 3 0 0 0 0 0 0 0 0 0 0 0 0 0 0 0 0 0 0
0 0 0 0 0 0 0 0 0 0 0 0 0 3 0 0 0 0 0 0 3 0 0 0 0 0 0 3 3 3 3 0 0 0 0 0 0 0 0 0 0 0 0 0 0 0 0 0 0
0 0 0 0 0 0 0 0 0 0 0 0 0 0 0 0 0 0 0 0 0 0 0 0 0 0 0 0 0 3 3 0 0 0 0 0 0 0 0 0 0 0 0 0 0 0 0 0 0
0 0 0 0 0 0 0 0 0 0 0 0 0 0 0 0 0 0 0 0 0 0 0 0 0 0 0 0 0 0 0 0 0 0 0 0 0 0 0 0 0 0 0 0 0 0 0 0 0
0 0 0 0 0 0 0 0 0 0 0 0 0 0 0 0 0 0 0 0 0 0 0 0 0 0 0 0 0 0 0 0 0 0 0 0 0 0 0 0 0 0 0 0 0 0 0 0 0
0 0 0 0 0 0 0 0 0 0 0 0 0 0 3 3 0 0 0 0 0 0 0 0 0 0 0 0 0 0 0 0 0 0 0 0 0 0 0 0 0 0 0 0 0 0 0 0 0
0 0 0 0 0 0 0 0 0 0 0 0 0 0 3 3 3 0 0 0 0 0 0 0 0 0 0 0 0 0 0 0 0 0 0 0 0 0 0 0 0 0 0 0 0 0 0 0 0
0 0 0 0 0 0 0 0 0 0 0 0 0 0 0 3 3 3 0 0 0 0 0 0 0 0 0 0 0 0 0 0 0 0 0 0 0 0 0 0 0 0 0 0 0 0 0 0 0
0 0 0 0 0 0 0 0 0 0 0 0 0 0 0 0 3 3 3 0 0 0 0 0 0 0 0 0 0 0 0 0 0 0 0 0 0 0 0 0 0 0 0 0 0 0 0 0 0
0 0 0 0 0 0 0 0 0 0 0 0 0 0 0 0 0 3 3 3 3 3 0 0 0 0 0 0 0 0 0 0 0 0 0 0 0 0 0 0 0 0 0 0 0 0 0 0 0
0 0 0 0 0 0 0 0 0 0 0 0 0 0 0 0 0 0 0 3 3 3 3 0 0 0 0 0 0 0 0 0 0 0 0 0 0 0 0 0 0 0 0 0 0 0 0 0 0
0 0 0 0 0 0 0 0 0 0 0 0 0 0 0 0 0 0 0 0 0 0 3 3 0 0 0 0 0 0 0 0 0 0 0 0 0 0 0 0 0 0 0 0 0 0 0 0 0
0 0 0 0 0 0 0 0 0 0 0 0 0 0 0 0 0 0 0 0 0 0 0 0 0 0 0 0 0 0 0 0 0 0 0 0 0 0 0 0 0 0 0 0 0 0 0 0 0
0 0 0 0 0 0 0 0 0 0 0 0 0 0 0 0 0 0 0 0 0 0 0 0 0 0 0 0 0 0 0 0 0 0 0 0 0 0 0 0 0 0 0 0 0 0 0 0 0
Height
5889 5889 5889 5890 5891 5890 5890 5891 5891 5892 5892 5892 5893 5894 5895 5895 5897 5899 5896 5894 5894 5894 5893 5893 5893 5893 5893 5893 5893 5892 5892 5892 5892 5892 5892 5892 5891 5891 5890 5890 5889 5889 5888 5887 5887 5886 5885 5885 5884
5889 5889 5890 5890 5890 5890 5891 5891 5891 5892 5893 5893 5893 5894 5895 5895 5896 5895 5894 5894 5894 5893 5893 5893 5893 5893 5893 5893 5893 5893 5892 5892 5892 5892 5892 5892 5891 5891 5890 5890 5889 5889 5888 5887 5886 5886 5885 5884 5883
5889 5889 5891 5890 5889 5890 5891 5891 5891 5891 5893 5893 5894 5894 5895 5895 5895 5895 5894 5894 5893 5893 5892 5893 5893 5893 5893 5893 5893 5893 5893 5892 5892 5892 5891 5891 5891 5890 5890 5889 5889 5888 5887 5887 5886 5885 5884 5884 5883
5889 5890 5891 5891 5890 5891 5891 5891 5891 5892 5892 5893 5894 5894 5894 5895 5895 5894 5893 5893 5893 5892 5892 5892 5893 5893 5893 5893 5893 5893 5892 5892 5892 5891 5891 5891 5890 5890 5889 5889 5888 5888 5887 5886 5885 5885 5884 5883 5882
5889 5890 5890 5890 5890 5891 5891 5891 5891 5892 5892 5893 5893 5893 5894 5894 5894 5893 5893 5893 5892 5892 5892 5892 5892 5892 5892 5893 5893 5892 5892 5892 5891 5891 5891 5890 5890 5889 5889 5888 5888 5887 5886 5885 5885 5884 5883 5882 5881
5889 5889 5890 5890 5890 5890 5890 5891 5891 5892 5892 5892 5893 5893 5893 5893 5893 5893 5892 5892 5892 5892 5892 5891 5892 5892 5892 5892 5892 5892 5891 5891 5891 5890 5890 5889 5889 5888 5888 5887 5887 5886 5885 5885 5884 5883 5882 5881 5880
5889 5889 5889 5889 5889 5889 5890 5890 5891 5891 5891 5892 5892 5892 5892 5892 5892 5892 5892 5891 5891 5891 5891 5891 5891 5891 5891 5891 5891 5890 5890 5890 5889 5889 5889 5888 5888 5887 5887 5886 5885 5885 5884 5883 5883 5882 5881 5880 5879
5888 5889 5888 5888 5889 5889 5890 5890 5890 5891 5891 5891 5891 5891 5891 5891 5891 5891 5891 5890 5890 5890 5890 5890 5890 5890 5890 5889 5889 5889 5889 5888 5888 5888 5887 5887 5886 5886 5885 5885 5884 5883 5883 5882 5881 5880 5879 5878 5877
5887 5889 5888 5888 5888 5889 5889 5889 5890 5890 5890 5890 5890 5890 5890 5890 5890 5890 5889 5889 5889 5889 5889 5888 5888 5888 5888 5888 5888 5888 5887 5887 5887 5886 5885 5885 5884 5884 5883 5883 5882 5882 5881 5880 5879 5879 5878 5877 5876
5886 5887 5887 5887 5887 5888 5888 5888 5888 5889 5889 5889 5889 5889 5889 5888 5888 5888 5888 5888 5888 5888 5887 5887 5887 5887 5886 5886 5886 5886 5885 5885 5885 5884 5884 5883 5883 5882 5882 5881 5880 5880 5879 5878 5877 5876 5876 5875 5874
5885 5886 5886 5886 5886 5886 5887 5887 5887 5887 5888 5888 5888 5887 5887 5887 5887 5887 5887 5887 5886 5886 5886 5886 5885 5885 5885 5884 5884 5884 5883 5883 5883 5882 5882 5881 5881 5880 5880 5879 5878 5877 5877 5876 5875 5874 5873 5873 5872
5884 5885 5885 5885 5885 5885 5885 5886 5886 5886 5887 5886 5886 5886 5886 5886 5885 5885 5885 5885 5884 5884 5884 5884 5883 5883 5883 5882 5882 5882 5881 5881 5881 5880 5880 5879 5878 5878 5877 5876 5876 5875 5875 5874 5873 5872 5871 5871 5870
5883 5883 5884 5884 5884 5884 5884 5884 5884 5885 5885 5885 5884 5884 5884 5884 5884 5884 5883 5883 5883 5882 5882 5882 5881 5881 5881 5880 5880 5879 5879 5879 5878 5878 5877 5877 5876 5875 5875 5874 5873 5873 5872 5871 5871 5870 5870 5869 5868
5882 5882 5882 5882 5882 5882 5883 5883 5883 5883 5883 5883 5883 5883 5883 5883 5883 5882 5882 5881 5881 5880 5880 5880 5879 5879 5878 5878 5878 5877 5877 5876 5876 5875 5875 5874 5873 5873 5872 5871 5871 5870 5869 5869 5868 5868 5867 5867 5866
5880 5881 5881 5881 5881 5881 5882 5882 5881 5881 5881 5881 5881 5881 5881 5881 5881 5880 5880 5880 5879 5878 5878 5877 5877 5877 5876 5876 5875 5875 5874 5874 5873 5873 5872 5871 5871 5870 5869 5869 5868 5867 5867 5866 5866 5866 5865 5865 5864
5879 5879 5880 5880 5880 5880 5882 5880 5880 5879 5879 5879 5879 5879 5879 5879 5879 5879 5878 5878 5877 5876 5876 5876 5875 5875 5874 5873 5873 5872 5872 5871 5871 5870 5869 5869 5868 5867 5867 5866 5866 5865 5864 5864 5863 5863 5863 5862 5862
5877 5878 5878 5878 5878 5878 5879 5879 5878 5877 5878 5878 5878 5877 5877 5877 5877 5876 5876 5876 5875 5874 5874 5873 5873 5873 5872 5871 5871 5870 5870 5869 5868 5868 5867 5866 5865 5865 5864 5864 5863 5862 5862 5861 5861 5860 5860 5860 5859
5876 5876 5876 5876 5876 5876 5877 5877 5876 5876 5876 5876 5876 5875 5875 5875 5875 5874 5874 5873 5873 5872 5872 5871 5871 5871 5870 5870 5869 5868 5868 5867 5866 5866 5865 5864 5863 5863 5862 5861 5860 5860 5859 5859 5858 5858 5858 5857 5857
5874 5874 5874 5874 5874 5874 5874 5875 5875 5874 5874 5874 5873 5873 5873 5873 5872 5872 5871 5871 5871 5870 5870 5869 5869 5869 5868 5867 5867 5866 5865 5865 5864 5864 5863 5862 5861 5860 5859 5859 5858 5857 5857 5856 5856 5855 5855 5855 5854
5871 5872 5872 5872 5872 5872 5872 5872 5872 5872 5871 5871 5871 5871 5871 5870 5870 5869 5869 5868 5868 5868 5867 5867 5867 5866 5866 5865 5865 5864 5863 5863 5862 5861 5860 5860 5859 5858 5857 5856 5855 5855 5854 5853 5853 5853 5852 5852 5852
5869 5869 5869 5870 5870 5869 5870 5870 5870 5869 5869 5869 5869 5868 5868 5868 5867 5867 5866 5866 5865 5865 5865 5864 5864 5864 5863 5862 5862 5861 5861 5860 5860 5859 5858 5857 5856 5856 5855 5854 5853 5852 5852 5851 5851 5850 5850 5850 5849
5866 5866 5866 5866 5867 5867 5867 5867 5868 5866 5866 5866 5866 5865 5865 5865 5864 5864 5863 5863 5863 5862 5862 5862 5861 5861 5860 5860 5859 5859 5858 5858 5857 5857 5856 5855 5854 5853 5852 5852 5851 5850 5849 5849 5848 5848 5848 5847 5847
5863 5863 5863 5863 5863 5864 5863 5863 5865 5863 5863 5863 5862 5862 5862 5862 5861 5860 5860 5860 5859 5859 5859 5859 5858 5858 5857 5857 5856 5856 5855 5855 5855 5854 5853 5853 5852 5851 5850 5849 5848 5848 5847 5847 5846 5846 5846 5845 5845
5860 5860 5860 5860 5860 5860 5860 5860 5861 5860 5860 5859 5859 5858 5858 5858 5858 5857 5857 5857 5856 5856 5856 5855 5855 5855 5854 5854 5853 5853 5852 5852 5852 5851 5851 5850 5849 5848 5848 5847 5846 5845 5845 5844 5844 5844 5843 5843 5842
5857 5857 5857 5856 5856 5857 5856 5856 5857 5856 5856 5856 5855 5855 5855 5855 5854 5854 5853 5853 5853 5853 5852 5852 5852 5851 5851 5850 5850 5850 5849 5849 5849 5848 5848 5847 5846 5846 5845 5844 5844 5843 5843 5842 5842 5841 5841 5840 5840
5853 5854 5854 5854 5853 5853 5852 5852 5853 5853 5852 5852 5852 5851 5851 5851 5851 5850 5850 5849 5849 5849 5849 5848 5848 5848 5847 5847 5847 5847 5846 5846 5846 5845 5844 5844 5844 5843 5842 5842 5841 5841 5840 5840 5839 5839 5838 5838 5837
5849 5849 5850 5850 5849 5849 5849 5849 5849 5849 5849 5848 5848 5848 5847 5847 5847 5846 5846 5846 5845 5845 5845 5844 5844 5844 5844 5843 5843 5843 5843 5842 5842 5842 5841 5841 5840 5840 5839 5839 5838 5838 5838 5837 5837 5837 5836 5835 5835
5846 5846 5846 5845 5845 5845 5845 5845 5845 5845 5844 5844 5844 5843 5843 5843 5842 5842 5842 5842 5841 5841 5841 5840 5840 5840 5840 5840 5839 5839 5839 5839 5838 5838 5838 5837 5837 5837 5836 5836 5836 5835 5835 5835 5834 5834 5833 5833 5832
5843 5842 5842 5842 5841 5841 5841 5843 5841 5840 5840 5839 5839 5839 5838 5838 5838 5838 5837 5837 5837 5837 5837 5836 5836 5836 5836 5835 5835 5835 5835 5835 5835 5835 5834 5834 5834 5833 5833 5833 5833 5833 5832 5832 5831 5831 5830 5830 5829
5838 5838 5838 5838 5837 5836 5836 5840 5836 5836 5835 5835 5835 5834 5834 5834 5833 5833 5833 5833 5833 5833 5833 5832 5832 5832 5832 5831 5831 5831 5831 5831 5830 5830 5830 5830 5830 5830 5830 5830 5830 5830 5829 5829 5828 5828 5827 5827 5826
Wind_Speed
3 2 3 4 5 5 5 5 4 4 4 4 4 4 4 3 2 1 0 0 0 1 1 0 0 1 0 0 0 0 0 0 1 1 1 2 2 2 3 3 3 3 3 3 3 4 3 4 4
2 2 2 3 4 4 4 5 4 5 4 3 3 3 3 3 2 1 1 1 1 1 1 1 1 0 0 1 1 0 0 1 2 2 2 2 2 3 3 3 4 4 4 3 4 4 4 5 5
2 2 3 4 4 4 4 4 4 4 4 4 3 3 3 3 2 2 2 3 2 2 1 1 1 1 1 2 2 1 1 2 2 3 3 3 3 4 4 4 4 4 4 4 4 5 5 6 6
3 3 3 4 4 3 4 4 3 3 3 3 4 3 3 2 2 2 2 3 2 2 2 2 2 2 2 2 3 3 3 3 3 3 4 4 4 4 4 5 5 5 5 5 5 5 6 6 6
4 4 4 4 4 4 3 3 3 3 2 3 3 3 2 2 2 2 3 3 2 2 2 2 3 2 3 3 3 4 4 4 4 4 5 5 5 5 5 6 6 6 6 6 6 6 7 7 7
4 4 5 4 3 4 4 4 4 4 3 3 3 3 3 3 3 3 4 3 3 3 3 3 4 3 3 4 4 5 5 5 5 5 5 6 6 6 7 7 6 6 7 7 7 7 7 7 8
4 5 5 5 4 4 3 3 4 4 4 4 4 4 4 4 3 4 5 5 4 4 4 5 5 5 4 5 5 5 5 5 6 7 7 7 7 8 8 8 8 7 7 8 7 8 8 9 9
5 5 5 5 4 3 3 3 3 4 4 4 4 4 4 4 4 5 5 5 5 5 6 6 6 6 6 6 6 6 6 6 6 7 8 8 8 8 8 8 8 8 9 9 8 8 8 9 10
5 5 4 4 5 4 3 3 3 4 4 4 5 5 6 6 5 5 5 6 6 6 6 7 7 7 8 7 7 7 7 8 8 7 8 8 8 9 9 9 9 9 9 9 9 9 9 9 10
5 5 4 4 4 4 4 4 5 4 4 4 4 5 5 6 6 6 6 6 6 6 6 7 7 7 8 8 8 8 8 9 9 9 9 8 9 10 10 10 10 10 10 10 9 9 9 9 10
6 5 4 5 4 4 5 5 5 4 4 4 4 4 5 5 6 5 6 6 6 6 7 7 7 7 8 9 9 8 9 9 9 9 9 9 9 10 10 10 11 11 10 10 9 9 9 9 9
6 6 5 5 4 5 4 4 5 5 5 4 4 4 5 5 5 5 6 7 7 8 8 8 7 7 8 9 9 9 9 9 9 10 10 10 10 10 11 11 12 11 10 10 9 9 9 9 9
6 6 6 5 5 5 5 4 5 5 5 5 5 4 5 5 5 6 6 7 7 8 8 8 8 8 8 8 9 9 9 10 10 10 10 11 11 11 11 11 11 11 10 10 10 9 9 9 9
6 6 6 6 5 5 5 5 5 6 6 6 5 5 6 6 6 6 6 6 7 7 7 8 8 8 8 9 9 10 10 10 11 11 11 11 11 11 11 11 11 11 11 10 10 10 9 9 10
6 6 6 5 5 5 5 6 6 6 6 7 7 6 6 7 7 7 7 6 7 7 7 7 8 8 8 9 9 10 10 10 11 11 10 10 11 11 10 11 11 11 10 10 10 10 10 10 9
6 6 5 6 5 5 5 5 6 6 6 6 7 7 7 7 7 8 8 7 7 7 7 8 8 8 8 9 9 9 10 10 10 9 10 10 10 10 10 10 11 11 11 11 10 10 10 10 9
7 6 5 6 6 5 5 5 5 6 5 6 7 7 7 7 8 8 8 8 8 8 8 8 8 8 8 8 8 9 9 9 9 9 9 10 10 10 10 11 11 11 11 11 10 10 10 10 9
7 7 6 5 5 5 5 5 5 6 6 6 7 7 7 8 8 8 8 8 9 9 8 8 8 9 9 8 8 8 8 9 9 9 9 9 10 10 10 11 11 10 10 10 10 10 10 9 9
8 8 7 7 6 6 6 6 6 6 7 7 7 7 7 8 8 8 9 9 8 9 9 8 9 10 10 10 9 9 9 9 9 9 9 9 9 10 10 10 11 11 10 10 10 10 10 10 10
9 9 8 8 8 8 8 7 6 6 7 7 7 7 8 8 8 9 9 9 9 9 10 10 10 10 11 10 10 10 10 9 9 9 9 9 10 10 10 10 11 10 10 10 10 10 10 10 10
9 9 9 9 10 10 10 9 7 7 8 8 8 8 8 9 9 9 9 10 10 10 10 11 11 11 11 11 11 11 11 11 10 10 10 10 10 10 10 10 10 10 9 9 9 9 9 9 9
10 10 11 11 11 11 11 10 9 9 9 9 9 9 9 9 10 10 10 10 11 11 11 11 12 12 12 12 11 11 11 11 11 10 10 10 10 10 10 10 10 9 9 8 8 8 9 9 9
11 11 11 12 12 11 11 12 10 10 10 10 10 10 10 9 10 10 10 11 11 11 11 11 12 12 12 12 12 11 11 11 11 10 10 10 10 10 10 10 9 9 8 8 8 8 8 9 9
12 12 12 12 12 12 11 12 11 10 10 10 11 11 10 10 10 10 11 12 12 12 12 12 12 12 12 12 12 12 12 12 11 11 11 11 10 10 10 10 9 9 9 9 9 9 9 9 9
12 12 13 13 13 12 12 12 12 11 10 11 11 11 11 11 10 11 12 12 12 13 12 12 13 13 13 13 12 12 12 12 12 12 12 11 11 11 10 10 10 10 9 9 9 10 10 9 9
12 12 13 14 13 13 12 13 12 11 11 11 11 11 11 12 12 12 12 13 13 13 13 13 13 13 14 14 14 13 13 13 13 12 12 12 12 11 11 10 9 9 9 9 9 9 9 9 9
13 12 13 14 14 14 14 14 14 13 12 12 12 12 11 12 13 13 13 13 14 14 14 14 14 14 14 15 15 14 14 13 13 12 12 12 12 11 11 10 9 9 10 10 9 9 9 9 9
13 12 12 13 14 14 15 15 15 14 14 14 14 14 13 14 14 14 14 14 14 14 14 15 15 15 14 14 14 14 14 14 13 13 13 13 13 12 11 10 10 10 10 10 11 10 10 10 10
12 13 14 15 16 17 16 15 15 15 14 15 15 15 15 14 15 15 15 15 15 15 14 14 15 15 15 15 15 15 14 14 14 13 13 13 12 11 11 11 10 10 10 11 11 11 11 10 10
14 15 15 16 17 17 17 16 16 16 16 15 15 16 16 16 15 16 16 16 16 15 15 15 15 15 16 16 15 15 15 14 14 14 14 13 13 13 12 12 12 12 11 11 11 11 11 11 11
Wind_Direction
152 157 154 160 173 181 183 173 159 154 153 158 149 152 152 147 149 146 148 302 342 340 282 241 123 113 40 48 64 35 55 344 321 314 318 336 334 332 327 319 319 320 318 313 309 307 303 306 304
161 169 163 177 175 186 174 169 165 167 165 167 162 161 163 168 166 170 256 282 311 323 289 225 247 231 296 301 264 329 270 274 284 282 287 300 311 319 316 308 313 320 317 312 310 309 303 306 308
184 190 187 189 191 195 174 165 159 165 165 170 179 174 179 189 199 223 259 281 286 292 271 229 253 259 274 281 261 267 289 288 280 273 275 294 299 300 308 306 310 311 310 311 311 309 306 306 308
205 211 204 202 203 188 174 165 169 166 169 184 188 179 191 219 224 236 254 261 263 271 258 249 255 260 264 265 262 271 277 285 282 275 278 291 297 296 299 299 305 305 305 303 307 306 306 307 309
222 222 222 214 206 184 176 178 179 192 209 211 204 193 213 238 234 231 246 262 260 263 263 260 266 265 260 262 265 272 274 271 274 276 280 285 292 292 290 295 300 300 300 303 303 304 305 305 306
228 223 226 221 205 197 188 180 180 194 210 218 219 212 230 246 249 247 259 277 283 277 276 274 278 272 264 262 265 268 275 278 274 279 281 281 284 290 292 293 296 298 298 302 302 302 303 303 307
226 226 227 222 211 210 202 203 206 213 227 231 232 236 245 256 264 266 270 279 284 285 284 281 277 276 275 275 272 271 273 279 280 278 278 280 281 285 290 296 298 298 300 301 300 301 300 302 303
228 232 238 231 220 220 219 225 230 228 238 246 244 245 251 264 275 274 273 278 279 279 280 281 278 276 277 275 274 274 273 278 279 281 277 280 284 287 291 294 296 296 296 297 297 298 298 299 300
236 244 250 244 228 227 228 237 239 241 247 252 254 257 261 267 272 275 278 285 283 277 279 280 278 276 276 273 272 276 276 277 279 282 282 279 283 287 289 289 289 290 292 293 293 296 296 293 294
243 249 253 255 249 247 250 260 254 251 251 252 258 263 265 269 274 275 278 283 285 281 280 282 281 277 275 273 273 275 277 277 278 280 282 283 281 282 285 287 288 288 289 291 291 291 294 294 294
241 245 254 255 255 249 253 258 257 248 243 248 257 262 265 269 272 275 277 282 286 287 285 284 280 277 276 275 278 277 280 279 278 280 283 285 285 285 283 288 290 290 289 287 288 291 291 294 293
245 246 251 256 253 251 255 258 256 253 253 255 260 264 267 273 277 279 283 286 289 290 291 288 285 280 278 276 276 276 278 278 277 280 283 285 286 287 288 286 288 288 286 287 291 292 289 291 292
243 245 249 257 259 256 257 261 265 263 257 263 271 278 281 286 290 289 287 288 287 288 287 285 282 282 279 278 274 274 277 278 279 280 280 283 283 284 287 290 288 286 286 287 287 288 288 288 289
244 249 253 257 258 261 261 262 266 264 269 266 269 275 280 284 288 289 290 290 292 294 289 284 284 282 278 277 276 276 280 280 277 277 279 282 285 286 287 286 287 286 284 283 283 283 287 287 286
245 248 251 252 255 259 263 267 268 267 268 270 272 277 280 282 285 288 289 292 293 295 295 291 289 285 281 279 277 279 280 281 280 280 282 284 285 284 280 282 286 284 282 281 281 279 282 282 284
250 246 249 250 249 252 259 265 268 267 268 272 277 284 288 283 282 284 284 288 292 291 291 291 289 287 286 286 282 282 282 281 281 283 286 288 287 283 282 284 287 284 280 281 281 278 277 279 281
250 249 251 255 253 253 258 267 271 269 268 273 281 286 291 289 285 284 283 285 288 289 289 289 289 290 291 288 285 284 284 284 285 288 289 287 285 282 282 284 286 284 281 280 280 278 277 278 279
249 249 251 256 260 263 266 269 272 276 274 278 284 284 288 288 286 286 286 286 286 285 287 288 290 289 290 290 289 287 286 286 290 290 290 292 290 286 285 286 286 285 284 280 277 275 275 278 280
252 256 253 257 262 266 269 272 275 277 277 278 279 283 287 288 284 286 287 289 288 283 282 285 289 291 289 287 286 286 287 286 290 293 293 296 293 290 290 289 289 286 283 280 277 275 272 272 274
256 257 257 256 259 262 266 271 274 276 272 276 281 283 286 290 292 289 288 288 286 283 281 282 287 291 290 287 286 285 285 285 288 291 293 296 295 293 291 289 288 287 284 279 277 274 271 271 273
256 259 259 258 260 262 265 269 271 274 274 276 281 283 284 286 287 287 284 284 284 284 281 281 284 286 284 283 285 285 286 287 285 285 289 294 295 291 290 290 289 287 282 280 275 272 272 273 273
256 259 259 258 260 262 265 264 267 273 278 283 283 281 282 284 284 284 282 279 280 281 281 281 282 281 280 280 280 282 284 285 284 283 286 291 291 291 292 290 286 282 281 277 275 271 275 274 272
259 260 260 261 265 265 267 268 270 274 278 283 285 282 281 281 280 282 281 279 280 281 280 280 281 278 279 278 278 280 282 282 284 285 285 288 289 289 291 290 286 282 280 275 273 276 277 276 275
262 261 263 264 266 266 268 271 273 279 281 282 283 283 280 278 276 278 280 280 279 280 280 281 280 279 279 279 277 279 280 281 283 284 284 285 287 286 286 286 285 282 276 273 272 277 276 277 276
262 264 265 263 265 267 272 274 278 279 278 280 280 279 277 277 277 276 280 281 282 281 280 279 278 277 276 276 276 276 275 277 281 282 281 283 284 282 281 282 281 277 276 275 277 278 275 273 274
263 262 262 263 266 267 269 274 279 280 279 279 278 278 277 277 278 278 279 280 281 281 278 276 276 275 275 275 275 275 274 276 280 281 281 282 283 285 282 278 277 276 278 281 283 282 278 277 275
262 263 264 264 265 267 270 274 277 277 277 278 279 278 278 277 277 277 278 279 278 278 277 275 274 275 274 275 275 275 273 274 278 277 279 280 280 279 278 278 276 276 277 281 284 283 280 277 276
260 262 264 265 268 269 272 274 277 278 276 275 277 278 276 275 276 277 277 277 276 277 277 275 273 275 275 274 274 274 273 272 272 274 276 280 277 273 274 275 275 275 277 278 279 282 282 281 278
260 262 265 267 269 272 274 274 277 276 275 276 276 276 276 275 273 275 275 273 273 275 275 275 275 275 275 274 273 274 272 268 269 270 275 276 273 272 269 269 272 275 277 279 279 279 281 283 280
260 262 265 267 270 272 274 273 274 274 272 273 274 275 274 275 275 273 270 268 268 270 271 274 277 277 274 273 272 271 269 269 268 269 271 270 272 272 268 266 268 273 275 278 278 276 277 278 277